Regional Weather Roundup
Issued by NWS Northern Indiana

Home | Current Version | Previous Version | Graphics & Text | Print | Product List | Glossary Off
Versions: 1 2 3 4 5 6 7 8 9 10 11 12 13 14 15 16 17 18 19 20 21 22 23 24 25 26 27 28 29 30 31 32 33 34 35 36 37 38 39 40 41 42 43 44 45 46 47 48 49 50

000
ASUS43 KIWX 201110
RWRIWX

KIWX WEATHER ROUNDUP
NATIONAL WEATHER SERVICE NORTHERN INDIANA
700 AM EDT FRI OCT 20 2017

NOTE: "FAIR" INDICATES FEW OR NO CLOUDS BELOW 12,000 FEET WITH NO
SIGNIFICANT WEATHER AND/OR OBSTRUCTIONS TO VISIBILITY.

* THESE STATIONS ARE NOT UNDER NWS QUALITY CONTROL. THEY ALSO MAY NOT
  REPORT WEATHER SUCH AS PRECIPITATION OR FOG.

INZ001>027-201200-
NORTHERN INDIANA

CITY           SKY/WX    TMP DP  RH WIND       PRES   REMARKS
GARY*          CLEAR     55  48  76 S6        30.19R
VALPARAISO     FAIR      46  40  79 CALM      30.21R
MICHIGAN CITY* FAIR      54  46  76 S5        30.21R
LAPORTE*       FAIR      43  40  89 CALM      30.21S
KNOX*          FAIR      46  45  93 S5        30.21S
SOUTH BEND     FAIR      44  39  82 CALM      30.22R
ELKHART*       FAIR      45  39  81 CALM      30.22
GOSHEN         FAIR      45  38  76 SE6       30.23R
MONTICELLO*    FAIR      52  51  95 S5        30.22R
LOGANSPORT*    FAIR      46  45  93 SE3       30.24R
WARSAW*        FAIR      43  39  87 CALM      30.24R
AUBURN*        FAIR      43  39  87 CALM      30.25S
FORT WAYNE     FAIR      45  42  89 CALM      30.25R
HUNTINGTON*    FAIR      46  44  96 CALM      30.24R
PERU/GRISSOM   CLEAR     51  49  96 S3        30.23R
MARION*        FAIR      46  45  93 S3        30.26R FOG

$$
INZ028>050-201200-
CENTRAL INDIANA

CITY           SKY/WX    TMP DP  RH WIND       PRES   REMARKS
LAFAYETTE      FAIR      49  49 100 CALM      30.23R
KOKOMO*        FAIR      48  47  96 S6        30.25R
MUNCIE*        FAIR      51  47  86 S5        30.26R
INDIANAPOLIS   FAIR      52  49  89 CALM      30.26R

$$
MIZ043>046-050>051-056>058-064>065-071>073-077>080-201200-
SOUTHWEST LOWER MICHIGAN

CITY           SKY/WX    TMP DP  RH WIND       PRES   REMARKS
BATTLE CREEK   FAIR      43  36  76 CALM      30.22R
BENTON HARBOR  FAIR      51  38  60 SE3       30.20R
COLDWATER*     FAIR      41  40  97 CALM      30.23R
HILLSDALE*     FAIR      43  34  70 CALM      30.23S
HOLLAND        FAIR      47  36  65 S5        30.19R
GRAND RAPIDS   FAIR      44  36  73 S6        30.19S
KALAMAZOO      FAIR      44  35  70 S3        30.22R
STURGIS*       FAIR      48  34  57 CALM      30.22R
THREE RIVERS*  FAIR      45  41  88 CALM      30.23R

$$
OHZ001>008-015>018-024>025-201200-
NORTHWEST OHIO

CITY           SKY/WX    TMP DP  RH WIND       PRES   REMARKS
WAUSEON*       CLOUDY    37  36  93 S5        30.26R
DEFIANCE       FAIR      40  38  93 CALM      30.26R
FINDLAY        FAIR      42  38  85 CALM      30.26R
TOLEDO EXPRESS FAIR      39  38  96 W3        30.27R
TOLEDO METCALF FAIR      44  36  73 CALM      30.27R
LIMA           FAIR      42  42 100 SE3       30.26S FOG

$$
AND FOR LAKE MICHIGAN COASTAL AND OPEN LAKE BUOY OBSERVATIONS

STATION/POSITION TEMP    WIND        PRES    VSBY  WAVE
                 AIR SEA DIR/SP/G                  HT/PER
                 (F)     (DEG/KT/KT) (MB)    (MI)  (FT/S)
CALUMET HARBOR    56     170/  5/  6 1021.0R
MICHIGAN CITY     58     160/ 10/ 13   N/A
BURNS HARBOR      57     180/ 10/ 15 1022.4R
SAINT JOSEPH      54     140/  4/  7 1023.0
SOUTH LAKE BUOY   61 61  190/ 14/ 16 1021.2R         2/ 3
4 MI NW BRIDGMAN  58 58  180/ 10/ 14 1022.6          1/ 3
MICHIGAN CITY     57 58  190/ 10/ 12   N/A           1/ 2

$$
&&




USA.gov is the U.S. government's official web portal to all federal, state and local government web resources and services.